Weather reports worldwide

Advertisment
Ustica, Italy (16400): temperature & dewpoint: 17.04.2018 01:00:00 - 23.04.2018 01:00:00 (CEST)Ustica, Italy (16400): wind speed: 17.04.2018 01:00:00 - 23.04.2018 01:00:00 (CEST)Ustica, Italy (16400): wind direction: 17.04.2018 01:00:00 - 23.04.2018 01:00:00 (CEST)Ustica, Italy (16400): reduced air pressure: 17.04.2018 01:00:00 - 23.04.2018 01:00:00 (CEST)Ustica, Italy (16400): visibility: 17.04.2018 01:00:00 - 23.04.2018 01:00:00 (CEST)Ustica, Italy (16400): sunshine duration: 17.04.2018 01:00:00 - 23.04.2018 01:00:00 (CEST)
Date & Time tt [°C] td [°C] ff [km/h] ff [kn] dd ppp [hPa] vv [km] sd [min]
23.04.2018 01:00:00 - - - - - - - -
23.04.2018 00:00:00 - - - - - - - -
22.04.2018 23:00:00 - - - - - - - -
22.04.2018 22:00:00 - - - - - - - -
22.04.2018 21:00:00 - - - - - - - -
22.04.2018 20:00:00 20,0 15,4 0 0 N 1018,9 18 30
22.04.2018 19:00:00 20,2 15,2 0 0 N 1018,8 18 60
22.04.2018 18:00:00 20,2 15,6 0 0 N 1019,2 18 60
22.04.2018 17:00:00 20,4 13,1 0 0 N 1019,2 18 60
22.04.2018 16:00:00 20,4 13,1 0 0 N 1019,2 18 60
22.04.2018 15:00:00 19,4 15,0 0 0 N 1019,3 18 60
22.04.2018 14:00:00 18,8 15,7 0 0 N 1019,7 18 60
22.04.2018 13:00:00 - - - - - - - -
22.04.2018 12:00:00 17,8 12,9 0 0 N 1019,6 18 60
22.04.2018 11:00:00 17,0 12,4 4 2 WNW 1019,6 18 60
22.04.2018 10:00:00 16,4 13,5 4 2 NW 1019,3 18 60
22.04.2018 09:00:00 15,0 15,0 5 3 WSW 1019,2 18 60
22.04.2018 08:00:00 15,0 15,0 5 3 N 1019,1 18 12
22.04.2018 07:00:00 - - - - - - - -
22.04.2018 06:00:00 - - - - - - - -
22.04.2018 05:00:00 - - - - - - - -
22.04.2018 04:00:00 - - - - - - - -
22.04.2018 03:00:00 - - - - - - - -
22.04.2018 02:00:00 - - - - - - - -
22.04.2018 01:00:00 - - - - - - - -
22.04.2018 00:00:00 - - - - - - - -
21.04.2018 23:00:00 - - - - - - - -
21.04.2018 22:00:00 - - - - - - - -
21.04.2018 21:00:00 - - - - - - - -
21.04.2018 20:00:00 18,0 15,8 0 0 N 1019,4 18 18
21.04.2018 19:00:00 19,4 15,4 0 0 N 1019,4 18 48
21.04.2018 18:00:00 20,0 17,0 11 6 WNW 1019,4 18 60
21.04.2018 17:00:00 20,2 15,9 4 2 NNW 1019,4 18 48
21.04.2018 16:00:00 20,4 15,5 9 5 NNW 1019,7 18 60
21.04.2018 15:00:00 20,4 14,8 8 4 WNW 1019,9 18 60
21.04.2018 14:00:00 20,0 13,3 8 4 WNW 1020,2 18 -
21.04.2018 13:00:00 18,8 10,8 4 2 NNW 1020,4 18 60
21.04.2018 12:00:00 18,0 11,0 11 6 WNW 1020,4 18 60
21.04.2018 11:00:00 16,6 14,4 4 2 NW 1020,6 10 60
21.04.2018 10:00:00 15,4 15,4 4 2 W 1020,0 18 48
21.04.2018 09:00:00 14,6 9,7 8 4 NNW 1019,8 18 24
21.04.2018 08:00:00 15,2 9,7 9 5 N 1019,5 14 0
21.04.2018 07:00:00 - - - - - - - -
21.04.2018 06:00:00 - - - - - - - -
21.04.2018 05:00:00 - - - - - - - -
21.04.2018 04:00:00 - - - - - - - -
21.04.2018 03:00:00 - - - - - - - -
21.04.2018 02:00:00 - - - - - - - -
21.04.2018 01:00:00 - - - - - - - -
21.04.2018 00:00:00 - - - - - - - -
20.04.2018 23:00:00 - - - - - - - -
20.04.2018 22:00:00 - - - - - - - -
20.04.2018 21:00:00 - - - - - - - -
20.04.2018 20:00:00 18,2 16,4 9 5 W 1019,5 18 0
20.04.2018 19:00:00 18,6 16,2 11 6 W 1019,6 18 36
20.04.2018 18:00:00 20,2 15,9 13 7 NW 1019,8 20 60
20.04.2018 17:00:00 21,0 16,5 9 5 NNW 1020,3 20 60
20.04.2018 16:00:00 21,0 14,4 11 6 NNW 1020,3 20 60
20.04.2018 15:00:00 19,6 14,0 5 3 NNE 1021,4 25 60
20.04.2018 14:00:00 19,4 14,2 9 5 NW 1021,5 25 60
20.04.2018 13:00:00 18,8 14,7 11 6 WNW 1021,6 25 60
20.04.2018 12:00:00 18,4 14,9 9 5 NNE 1022,2 25 60
20.04.2018 11:00:00 17,2 16,2 8 4 NNE 1021,8 20 60
20.04.2018 10:00:00 17,2 11,0 11 6 E 1021,8 25 60
20.04.2018 09:00:00 15,4 10,8 8 4 N 1021,6 25 60
20.04.2018 08:00:00 15,4 10,4 8 4 N 1021,3 25 30
20.04.2018 07:00:00 - - - - - - - -
20.04.2018 06:00:00 - - - - - - - -
20.04.2018 05:00:00 - - - - - - - -
20.04.2018 04:00:00 - - - - - - - -
20.04.2018 03:00:00 - - - - - - - -
20.04.2018 02:00:00 - - - - - - - -
20.04.2018 01:00:00 - - - - - - - -
20.04.2018 00:00:00 - - - - - - - -
19.04.2018 23:00:00 - - - - - - - -
19.04.2018 22:00:00 - - - - - - - -
19.04.2018 21:00:00 - - - - - - - -
19.04.2018 20:00:00 17,8 15,8 18 10 N 1022,8 18 -
19.04.2018 19:00:00 18,0 15,8 15 8 N 1022,7 20 60
19.04.2018 18:00:00 18,2 15,3 18 10 N 1022,9 20 60
19.04.2018 17:00:00 18,0 15,3 15 8 N 1023,1 20 60
19.04.2018 16:00:00 17,0 12,5 18 10 N 1024,2 20 60
19.04.2018 15:00:00 18,0 14,1 18 10 N 1023,7 20 60
19.04.2018 14:00:00 17,8 14,1 21 11 NNE 1024,1 20 60
19.04.2018 13:00:00 17,6 13,3 18 10 NNE 1024,2 20 60
19.04.2018 12:00:00 17,2 14,3 18 10 N 1024,4 25 60
19.04.2018 11:00:00 15,8 12,9 18 10 NNE 1024,6 20 60
19.04.2018 10:00:00 14,0 12,7 18 10 NNE 1024,6 20 60
19.04.2018 09:00:00 13,6 11,0 21 11 E 1024,3 20 18
19.04.2018 08:00:00 13,6 11,1 18 10 E 1024,1 20 -
19.04.2018 07:00:00 - - - - - - - -
19.04.2018 06:00:00 - - - - - - - -
19.04.2018 05:00:00 - - - - - - - -
19.04.2018 04:00:00 - - - - - - - -
19.04.2018 03:00:00 - - - - - - - -
19.04.2018 02:00:00 - - - - - - - -
19.04.2018 01:00:00 - - - - - - - -
19.04.2018 00:00:00 - - - - - - - -
18.04.2018 23:00:00 - - - - - - - -
18.04.2018 22:00:00 - - - - - - - -
18.04.2018 21:00:00 - - - - - - - -
18.04.2018 20:00:00 15,2 15,2 21 11 S 1022,7 18 -
18.04.2018 19:00:00 16,0 15,7 18 10 SSE 1023,3 20 -
18.04.2018 18:00:00 15,8 15,8 18 10 SE 1023,3 20 -
18.04.2018 17:00:00 17,0 15,4 24 13 SE 1023,4 20 -
18.04.2018 16:00:00 16,8 14,6 18 10 E 1023,3 20 60
18.04.2018 15:00:00 16,6 13,1 18 10 N 1022,9 20 60
18.04.2018 14:00:00 16,6 13,1 18 10 NNE 1022,8 20 60
18.04.2018 13:00:00 15,4 12,4 18 10 E 1023,1 20 60
18.04.2018 12:00:00 14,8 12,5 22 12 E 1023,1 20 60
18.04.2018 11:00:00 14,6 12,1 18 10 E 1023,1 20 60
18.04.2018 10:00:00 13,2 9,7 22 12 E 1022,8 20 18
18.04.2018 09:00:00 12,8 9,8 24 13 E 1022,7 20 -
18.04.2018 08:00:00 12,8 10,0 22 12 E 1021,6 18 -
18.04.2018 07:00:00 - - - - - - - -
18.04.2018 06:00:00 - - - - - - - -
18.04.2018 05:00:00 - - - - - - - -
18.04.2018 04:00:00 - - - - - - - -
18.04.2018 03:00:00 - - - - - - - -
18.04.2018 02:00:00 - - - - - - - -
18.04.2018 01:00:00 - - - - - - - -
18.04.2018 00:00:00 - - - - - - - -
17.04.2018 23:00:00 - - - - - - - -
17.04.2018 22:00:00 - - - - - - - -
17.04.2018 21:00:00 - - - - - - - -
17.04.2018 20:00:00 15,6 14,6 18 10 W 1019,9 16 -
17.04.2018 19:00:00 15,8 13,8 18 10 WNW 1019,8 18 -
17.04.2018 18:00:00 15,8 13,5 22 12 NW 1019,6 20 -
17.04.2018 17:00:00 15,4 10,4 18 10 WSW 1019,5 20 60
17.04.2018 16:00:00 15,6 10,8 21 11 SW 1020,3 20 -
17.04.2018 15:00:00 14,8 12,3 18 10 SW 1020,2 20 -
17.04.2018 14:00:00 15,0 12,9 26 14 SW 1020,6 20 60
17.04.2018 13:00:00 13,4 10,9 28 15 SW 1020,8 20 60
17.04.2018 12:00:00 14,4 12,3 28 15 SSW 1020,6 20 24
17.04.2018 11:00:00 13,6 11,3 22 12 SSW 1020,6 20 24
17.04.2018 10:00:00 13,4 10,9 26 14 SW 1019,6 16 -
17.04.2018 09:00:00 13,2 10,9 24 13 SW 1019,2 4,0 -
17.04.2018 08:00:00 13,2 11,1 28 15 SW 1018,7 8 -
17.04.2018 07:00:00 - - - - - - - -
17.04.2018 06:00:00 - - - - - - - -
17.04.2018 05:00:00 - - - - - - - -
17.04.2018 04:00:00 - - - - - - - -
17.04.2018 03:00:00 - - - - - - - -
17.04.2018 02:00:00 - - - - - - - -
17.04.2018 01:00:00 - - - - - - - -

tt = temperature
td = dewpoint
ff = wind speed
dd = wind direction
ppp = reduced air pressure
vv = visibility
sd = sunshine duration

Next stations